EW1898 Weather Reports


time (UTC)temp
C
wind
direction
speed
KPH
gust
KPH
rain 1hr
cm
rain 24hr
cm
rain mn
cm
humidity
%
barometer
mb
20260901210053 17 158 0.0 1.6 0.00 0.66 0.66 98 1017.8
20260901204608 17 158 0.0 1.6 0.03 0.66 0.66 98 1017.7
20260901203059 17 88 0.0 1.6 0.03 0.66 0.66 98 1017.5
20260901201556 17 165 0.0 1.6 0.05 0.66 0.66 98 1017.4
20260901200114 17 151 0.0 3.2 0.08 0.66 0.66 98 1017.4
20260901194606 17 144 0.0 1.6 0.08 0.64 0.64 98 1017.3
20260901193052 17 139 0.0 4.8 0.10 0.61 0.61 98 1017.4
20260901191623 17 138 0.0 3.2 0.15 0.61 0.61 99 1017.4
20260901190058 17 116 0.0 0.0 0.15 0.58 0.58 98 1017.5
20260901184548 17 118 0.0 3.2 0.13 0.56 0.56 98 1017.5
20260901183053 17 113 0.0 1.6 0.08 0.51 0.51 98 1017.6
20260901181605 17 101 0.0 6.4 0.03 0.46 0.46 98 1017.6
20260901180047 17 130 0.0 6.4 0.03 0.43 0.43 98 1017.3
20260901174546 17 159 0.0 6.4 0.03 0.43 0.43 98 1017.0
20260901173045 16 138 0.0 6.4 0.03 0.43 0.43 98 1017.0
20260901171549 16 92 0.0 6.4 0.03 0.43 0.43 98 1017.3
20260901170055 16 145 0.0 4.8 0.00 0.41 0.41 98 1017.2
20260901164543 17 158 0.0 3.2 0.00 0.41 0.41 98 1017.2
20260901163046 17 215 0.0 1.6 0.00 0.41 0.41 98 1017.4
20260901161542 17 149 0.0 4.8 0.00 0.41 0.41 98 1017.5
20260901154540 17 108 1.6 6.4 0.00 0.41 0.41 98 1017.1
20260901153044 17 82 0.0 4.8 0.00 0.41 0.41 98 1017.1
20260901151543 17 121 0.0 1.6 0.00 0.41 0.41 98 1017.4
20260901150045 17 148 0.0 1.6 0.00 0.41 0.41 98 1017.5
20260901144543 17 146 0.0 3.2 0.00 0.41 0.41 98 1017.1
20260901143038 17 92 0.0 1.6 0.00 0.41 0.41 98 1017.2
20260901141536 17 137 0.0 3.2 0.00 0.41 0.41 97 1017.3
20260901140101 17 146 0.0 1.6 0.05 0.41 0.41 97 1017.1
20260901134535 17 138 0.0 4.8 0.15 0.41 0.41 97 1017.2
20260901133030 17 86 0.0 1.6 0.28 0.41 0.41 97 1017.4
20260901131538 17 139 0.0 3.2 0.38 0.41 0.41 98 1017.6
20260901130031 17 239 0.0 0.0 0.36 0.36 0.36 97 1017.6
20260901124527 17 237 0.0 0.0 0.25 0.25 0.25 97 1017.5
20260901123030 17 314 0.0 0.0 0.13 0.13 0.13 97 1017.9
20260901121524 17 314 0.0 0.0 0.03 0.03 0.03 97 1017.7
20260901120023 17 314 0.0 0.0 0.00 0.00 0.00 97 1017.7
20260901114529 17 314 0.0 0.0 0.00 0.00 0.00 97 1017.5
20260901113022 17 314 0.0 0.0 0.00 0.00 0.00 96 1017.6
20260901111522 17 314 0.0 0.0 0.00 0.00 0.00 96 1017.5
20260901110021 17 314 0.0 0.0 0.00 0.00 0.00 96 1017.3
20260901104522 17 314 0.0 0.0 0.00 0.00 0.00 95 1017.2
20260901103018 18 314 0.0 0.0 0.00 0.00 0.00 94 1017.0
20260901101538 18 314 0.0 0.0 0.00 0.00 0.00 92 1016.9
20260901100015 18 314 0.0 0.0 0.00 0.00 0.00 90 1016.8
20260901094527 18 314 0.0 0.0 0.00 0.00 0.00 88 1016.7
20260901093012 18 314 0.0 0.0 0.00 0.00 0.00 87 1016.7
20260901091512 18 314 0.0 0.0 0.00 0.00 0.00 87 1016.7
20260901090012 18 314 0.0 0.0 0.00 0.00 0.00 86 1016.7
20260901084512 18 314 0.0 0.0 0.00 0.00 0.00 86 1016.7
20260901083009 18 314 0.0 0.0 0.00 0.00 0.00 85 1016.6
20260901081512 18 314 0.0 0.0 0.00 0.00 0.00 85 1016.8
20260901080009 18 314 0.0 0.0 0.00 0.00 0.00 84 1016.7
20260901074505 18 314 0.0 0.0 0.00 0.00 0.00 84 1016.8
20260901073003 18 314 0.0 0.0 0.00 0.00 0.00 83 1017.2
20260901071503 18 314 0.0 0.0 0.00 0.00 0.00 83 1017.0
20260901070134 18 308 0.0 0.0 0.00 0.00 0.00 83 1017.2
20260901064608 18 308 0.0 0.0 0.00 0.00 0.00 84 1017.3
20260901063103 18 308 0.0 0.0 0.00 0.00 0.00 84 1017.3
20260901061607 19 308 0.0 0.0 0.00 0.00 0.00 84 1017.3
20260901060055 19 308 0.0 0.0 0.00 0.00 0.00 85 1017.4
20260901054554 19 308 0.0 0.0 0.00 0.00 0.00 86 1017.5
20260901053107 19 308 0.0 0.0 0.00 0.00 0.00 87 1017.4
20260901051553 19 308 0.0 0.0 0.00 0.00 0.00 88 1017.5
20260901050052 19 308 0.0 0.0 0.00 0.00 0.00 88 1017.4
20260901044610 19 308 0.0 0.0 0.00 0.00 0.00 87 1017.5
20260901043050 19 308 0.0 0.0 0.00 0.00 0.00 87 1017.5
20260901041548 19 308 0.0 0.0 0.00 0.00 0.00 86 1017.6
20260901040057 19 308 0.0 0.0 0.00 0.00 0.00 86 1017.4
20260901034545 19 308 0.0 0.0 0.00 0.00 0.00 84 1017.5
20260901033046 19 308 0.0 0.0 0.00 0.00 0.00 83 1017.5
20260901031545 19 308 0.0 0.0 0.00 0.00 0.00 82 1017.6
20260901030044 19 308 0.0 0.0 0.00 0.00 0.00 82 1017.6
20260901024549 19 308 0.0 0.0 0.00 0.00 0.00 81 1017.4
20260901023047 19 307 0.0 0.0 0.00 0.00 0.00 81 1017.4
20260901021603 20 307 0.0 0.0 0.00 0.00 0.00 79 1017.3
20260901020041 20 307 0.0 0.0 0.00 0.00 0.00 79 1017.4
20260901014541 20 307 0.0 0.0 0.00 0.00 0.00 77 1017.5
20260901013042 20 307 0.0 1.6 0.00 0.00 0.00 76 1017.5
20260901011539 20 307 0.0 0.0 0.00 0.00 0.00 76 1017.6
20260901010041 20 307 0.0 1.6 0.00 0.00 0.00 76 1017.6
20260901004538 20 307 0.0 0.0 0.00 0.00 0.00 75 1017.6
20260901003039 20 307 0.0 1.6 0.00 0.00 0.00 74 1017.5
20260901001540 21 307 0.0 1.6 0.00 0.00 0.00 74 1017.4
20260901000039 21 307 0.0 0.0 0.00 0.00 0.00 73 1017.4
20260831234536 21 307 0.0 0.0 0.00 0.00 0.00 72 1017.4
20260831233035 21 307 0.0 0.0 0.00 0.00 0.00 71 1017.5
20260831231553 22 307 0.0 0.0 0.00 0.00 0.00 69 1017.5
20260831230038 23 307 0.0 0.0 0.00 0.00 0.00 66 1017.6
20260831224549 23 307 0.0 1.6 0.00 0.00 0.00 63 1017.8
20260831223034 23 307 0.0 3.2 0.00 0.00 0.00 63 1017.8
20260831221542 24 292 1.6 6.4 0.00 0.00 0.00 62 1017.8
20260831220036 24 312 1.6 4.8 0.00 0.00 0.00 60 1017.7
20260831214540 23 308 0.0 6.4 0.00 0.00 0.00 61 1017.7
20260831213031 24 356 0.0 4.8 0.00 0.00 0.00 59 1017.6
20260831211531 24 303 1.6 8.0 0.00 0.00 0.00 57 1018.0